Location: Unspecified
(43.4354°N, 0.0000°E)
Time: 19:33:11
(UTC+00:00)

Transit 2A - Pass Details

Date: 18 June 2019
Orbit: 594 x 964 km, 66.7° (Epoch: 21 July)

Event Time Altitude Azimuth Distance (km) Brightness Sun altitude
Rises 11:26:32 0° 315° (NW) 3,398 9.1 68.7°
Reaches altitude 10° 11:29:48 10° 298° (WNW) 2,384 8.5 69.0°
Maximum altitude 11:33:23 18° 256° (WSW) 1,795 8.2 69.2°
Drops below altitude 10° 11:36:46 10° 214° (SW) 2,206 8.7 69.3°
Sets 11:39:39 0° 195° (SSW) 3,050 9.4 69.5°
